Tracking 25995 objects as of 19-Aug-2022
HD Live streaming from Space Station
objects crossing your sky now

STARLINK-4154

Track STARLINK-4154 now!
10-day predictions
STARLINK-4154 is classified as:


NORAD ID: 53133
Int'l Code: 2022-083B
Perigee: 422.6 km
Apogee: 424.4 km
Inclination: 53.2 °
Period: 92.9 minutes
Semi major axis: 6794 km
RCS: Unknown
Launch date: July 17, 2022
Source: United States (US)
Launch site: AIR FORCE EASTERN TEST RANGE (AFETR)
aabbcc
Your satellite tracking list
Your tracking list is empty




NASA's NSSDC Master Catalog

Two Line Element Set (TLE):
1 53133U 22083B   22230.91667824 -.00339016  00000-0 -61747-2 0  9993
2 53133  53.2173 247.5553 0001260  54.6535 303.7407 15.50123800  5729
Source of the keplerian elements: AFSPC